Погода в Казани

Погода в Казани : погода сейчас, прогноз погоды и архив. Всё, что Вы хотите узнать о погоде в Казани!

Хотите узнать прогноз погоды в Казани? Тогда Вам сюда: Погода в Казани

Поиск расширенной информации на нашем сайте:

Другие новости

Новости СМИ2

Главная страница сайта

Новости сайта

03.07.2017

Напоминаем, что на нашем специализированном сайте Метеоцентр.Азия вы можете получить высокодетализированные автоматические прогнозы погоды по пунктам России, СНГ и мира в авиационном формате (включающие направление и скорость ветра, видимость, явления погоды, количество и форму облачности, нижнюю и верхнюю границу облачности).


Погода в Казани - сегодня

Время (UTC), дата Ветер
(°,м/с) 
Видим.   Явления Облачность Т
(°С)
Тd
(°С)
f(%) Тe
(°С)
Pmin
(гПа)
dP
(гПа)
Po
(мм)
O2
(г/м3)
Тmin Tmax R s Состояние
почвы
06 13.08.18 260 (З) 10 км    8/0 средняя, верхняя 
[Ac lent|Ci]
+23.9 +11.8 47 +28  1009.5  -0.6  747  275           
09 13.08.18 270 (З) 10 км    10/3 1000 м верхняя 
[Cu med, cong|Ci fib]
+27.3 +13.3 42 +33  1008.6  -0.7  746  271           
12 13.08.18 280 (З) 10 км    10/4 1000 м верхняя 
[Cu med, cong|Ci fib]
+27.9 +11.4 36 +31  1007.6  -1  746  270           
15 13.08.18 280 (З) 10 км    10/0 верхняя 
[Ci fib]
+26.3 +11.7 40 +30  1007.2  -0.5  745  272    +28.9       
18 13.08.18 280 (З) 10 км    3/0 верхняя 
[Ci fib]
+22.2 +10.6 48 +24  1008.1  0.8  746  276           
21 13.08.18 тихо ()   10 км    ясно 
+18.8 +9.4 54 +19  1009.1  0.8  746  280           
00 14.08.18 240 (ЮЗ) 10 км    3/0 средняя 
[Ac lent]
+16.1 +11.6 75 +20  1009.2  746  282           
03 14.08.18 290 (З) 10 км  слаб. дождь  10/5 600 м средняя 
[Sc|As op]
+17.8 +10.1 61 +20  1010.3  1.1  747  281  +15.4        сухая 
06 14.08.18 300 (СЗ) 10 км  {дождь}  10/5 1000 м средняя 
[Sc|As op]
+19.6 +11 58 +24  1010.9  0.7  748  279           
09 14.08.18 290 (З) 10 км    8/3 600 м средняя, верхняя 
[Cu med, cong|Ac trans|Ci fib]
+21.3 +9.6 47 +22  1011.3  0.4  748  278           
12 14.08.18 290 (З) 10 км    8/4 600 м средняя 
[Cu med, cong|Ac trans]
+21.9 +8.3 42 +22  1011.3  748  278           
18 14.08.18 310 (СЗ) 10 км  {ливн. осадки}  5/3 1000 м средняя 
[Sc diur, vesp|Ac trans]
+19.3 +8.3 49 +21  1014  1.9  750  281           
21 14.08.18 тихо ()   10 км    4/0 средняя 
[Ac trans]
+14.9 +10.1 73 +16  1015.2  751  285           
00 15.08.18 290 (З) 10 км    ясно 
+13.9 +11.4 85 +18  1016.1  0.8  751  286           
03 15.08.18 310 (СЗ) 10 км    3/0 средняя 
[Ac trans]
+16.3 +12.1 76 +22  1016.9  0.9  752  284  +13.9        сухая 
06 15.08.18 280 (З) 10 км    6/0 верхняя 
[Ci fib]
+20.4 +9.6 50 +21  1017.4  0.7  753  281           
09 15.08.18 280 (З) 10 км    6/4 600 м кучево-дожд., верхняя 
[Cb cap|Ci fib]
+23.3 +9.3 41 +24  1017.3  753  278           
12 15.08.18 290 (З) 10 км    5/3 600 м кучево-дожд., верхняя 
[Cb cap|Ci fib]
+24.9 +7.3 32 +25  1016.6  -0.6  752  277           
15 15.08.18 270 (З) 10 км    9/3 600 м средняя, верхняя 
[Sc diur, vesp|Ac lent|Ci]
+23.6 +7.1 35 +24  1016.4  -0.3  752  278    +25.2       
18 15.08.18 130 (ЮВ) 10 км    8/0 средняя, верхняя 
[Ac lent|Ci sp]
+19.3 +11.1 59 +24  1015.7  -0.9  751  281           
21 15.08.18 160 (Ю) 10 км    10/3 600 м средняя 
[Sc|As op]
+18.9 +10.1 57 +21  1014.6  -1.1  750  281           
00 16.08.18 260 (З) 10 км  слаб. дождь  10/8 300 м средняя 
[Sc|As op]
+19.4 +11.5 60 +24  1013.8  -0.7  750  280           
03 16.08.18 170 (Ю) 10 км  {ливн. осадки, дождь}  9/3 600 м средняя, верхняя 
[Sc|Ac lent|Ci sp]
+18 +14.2 78 +26  1012  -1.8  749  280  +16.8      влажная 
06 16.08.18 250 (З) 10 км  в посл. час ливневой дождь  9/8 600 м кучево-дожд., средняя, верхняя 
[Cb calv|Ac cast|Ci sp]
+20.2 +14.2 68 +28  1011.9  749  278           
09 16.08.18 250 (З) 3{11}  10 км    9/9 1000 м средняя, верхняя 
[Sc|Ac As|Cs]
+21.7 +16.3 71 +33  1011.8  -0.1  749  276           
Время (UTC), дата Ветер
(°,м/с) 
Видим.   Явления Облачность Т
(°С)
Тd
(°С)
f(%) Тe
(°С)
Pmin
(гПа)
dP
(гПа)
Po
(мм)
O2
(г/м3)
Тmin Tmax R s Состояние
почвы

Для получения пояснительной информации подведите курсор к названию столбца.

ПОГОДА в Казани - архив

Всё, что Вы хотите узнать о погоде в Казани - удобно и подробно!

Выберите нужную дату (начиная с 1 января 2015* года) и нажмите кнопку "Найти".
Будут отображены архивные сводки погоды по пункту Казань, начиная с указанной даты.


Отображать данные в формате CSV (для использования в таблицах Excel)


Внимание! Наш архив погоды предназначен исключительно для личного некоммерческого использования в познавательных целях. Если Вам необходимы официальные справки о состоянии погоды (для производственных, юридических, коммерческих и т.п. целей), обращайтесь в органы Росгидромета.

*Примечание: данная дата относится к архиву по метеостанциям СССР (Россия, СНГ, Балтия).
Архив по метеостанциям Зарубежной Европы и Азии (кроме Китая) хранится 10 дней, по другим регионам земного шара (Китай, Африка, Америка, Австралия, Океания) - 1 день.

Казань - район местоположения метеостанции


Название, широта, долгота, высота метеостанции:
Казань 55.6°ш. 49.3°д. 116 м над ур. моря [Российская Федерация]

Дополнительная информация

В oтличие oт бoльшинства пoгoдных сайтoв мы публикуем пoдрoбную метеoинфoрмацию в детальнoм прoфессиoнальнoм фoрмате.

Характеристики температуры и влажнoсти вoздуха измеряются на высoте 2 м в тени вдали oт зданий и деревьев.
Скoрoсть ветра измеряется на высoте 10 м (на урoвне рoста челoвека скoрoсть ветра ниже в 1.5-2 раза). Если метеoстанция нахoдится в гoрoде или в лесу, тo скoрoсть ветра занижена на 2-4 м/с пo сравнению с oткрытым местoм. Скoрoсть ветра над акватoриями крупных рек и oзёр, а также на вершинах хoлмoв на 2-5 м/с выше, чем в oбычных услoвиях.
Атмoсфернoе давление в разных тoчках местнoсти мoжет значительнo oтличаться oт давления на метеoстанции, в зависимoсти oт услoвий рельефа (при пoдъёме на 10 м давление пoнижается примернo на 1 мм рт.ст.).